VOI245 MMMY-MMMX

Flight info

Callsign VOI245
Flight time N/A
Altitude 35000
Route KERGA1A KERGA UT132 DARAN DARAN3A
Aircraft A20N/M-SDE2E3FGHIRWXY/LB1

Departure

Time 2026-04-16 02:32
Airport Monterrey International Airport (MMMY)

Arrival

Time N/A
Airport Mexico City Benito Juárez International Airport (MMMX)
Time Latitude Longitude Altitude Speed Heading
2026-04-16 01:55 25.77852 -100.11285 1280 ft 0 kts 212°
2026-04-16 02:18 25.77853 -100.11284 1280 ft 1 kts 212°
2026-04-16 02:18 25.77865 -100.11276 1280 ft 2 kts 211°
2026-04-16 02:19 25.77878 -100.11267 1279 ft 2 kts 212°
2026-04-16 02:19 25.77890 -100.11258 1279 ft 2 kts 212°
2026-04-16 02:19 25.77903 -100.11249 1279 ft 2 kts 217°
2026-04-16 02:19 25.77913 -100.11237 1279 ft 2 kts 239°
2026-04-16 02:20 25.77919 -100.11221 1279 ft 2 kts 258°
2026-04-16 02:20 25.77920 -100.11205 1278 ft 2 kts 276°
2026-04-16 02:20 25.77917 -100.11189 1278 ft 2 kts 294°
2026-04-16 02:20 25.77914 -100.11182 1278 ft 1 kts 305°
2026-04-16 02:21 25.77911 -100.11178 1278 ft 0 kts 303°
2026-04-16 02:23 25.77920 -100.11202 1278 ft 3 kts 293°
2026-04-16 02:24 25.77927 -100.11219 1279 ft 2 kts 293°
2026-04-16 02:24 25.77943 -100.11258 1280 ft 9 kts 298°
2026-04-16 02:24 25.77978 -100.11323 1281 ft 9 kts 301°
2026-04-16 02:24 25.78011 -100.11384 1282 ft 8 kts 301°
2026-04-16 02:25 25.78041 -100.11438 1284 ft 8 kts 302°
2026-04-16 02:25 25.78070 -100.11489 1284 ft 7 kts 302°
2026-04-16 02:25 25.78097 -100.11539 1286 ft 7 kts 300°
2026-04-16 02:25 25.78120 -100.11582 1287 ft 6 kts 301°
2026-04-16 02:26 25.78142 -100.11623 1287 ft 6 kts 302°
2026-04-16 02:26 25.78167 -100.11668 1288 ft 7 kts 301°
2026-04-16 02:26 25.78193 -100.11715 1289 ft 7 kts 301°
2026-04-16 02:26 25.78217 -100.11758 1290 ft 6 kts 301°
2026-04-16 02:27 25.78246 -100.11796 1290 ft 6 kts 330°
2026-04-16 02:27 25.78294 -100.11790 1290 ft 7 kts 30°
2026-04-16 02:27 25.78347 -100.11756 1289 ft 10 kts 30°
2026-04-16 02:27 25.78399 -100.11705 1288 ft 8 kts 84°
2026-04-16 02:28 25.78390 -100.11678 1288 ft 0 kts 125°
2026-04-16 02:31 25.78355 -100.11619 1287 ft 37 kts 122°
2026-04-16 02:31 25.78086 -100.11121 1278 ft 110 kts 121°
2026-04-16 02:31 25.77580 -100.10198 1262 ft 168 kts 121°
2026-04-16 02:31 25.76941 -100.09036 1579 ft 186 kts 121°
2026-04-16 02:32 25.76228 -100.07762 1997 ft 204 kts 121°
2026-04-16 02:32 25.75442 -100.06355 2373 ft 227 kts 121°
2026-04-16 02:32 25.74446 -100.04890 2724 ft 252 kts 140°
2026-04-16 02:32 25.72770 -100.04096 3124 ft 278 kts 169°
2026-04-16 02:33 25.70744 -100.03889 3605 ft 297 kts 174°
2026-04-16 02:33 25.68724 -100.03732 4576 ft 292 kts 174°
2026-04-16 02:33 25.66759 -100.03531 5658 ft 282 kts 173°
2026-04-16 02:33 25.64813 -100.03286 6512 ft 280 kts 172°
2026-04-16 02:34 25.62867 -100.03006 7189 ft 285 kts 172°
2026-04-16 02:34 25.60920 -100.02704 7853 ft 289 kts 172°
2026-04-16 02:34 25.58917 -100.02381 8495 ft 293 kts 172°
2026-04-16 02:34 25.56865 -100.02045 9134 ft 297 kts 172°
2026-04-16 02:35 25.54824 -100.01709 9737 ft 302 kts 172°
2026-04-16 02:35 25.52728 -100.01365 10379 ft 305 kts 172°
2026-04-16 02:35 25.50600 -100.01009 10763 ft 319 kts 172°
2026-04-16 02:35 25.48344 -100.00633 11045 ft 335 kts 173°
2026-04-16 02:36 25.46003 -100.00243 11581 ft 342 kts 172°
2026-04-16 02:36 25.44416 -99.99979 12060 ft 343 kts 173°
2026-04-16 02:36 25.41276 -99.99453 13030 ft 344 kts 173°
2026-04-16 02:36 25.38912 -99.99059 13701 ft 346 kts 174°
2026-04-16 02:37 25.36529 -99.98769 14313 ft 348 kts 179°
2026-04-16 02:37 25.35712 -99.98714 14519 ft 349 kts 180°